Location: Lawrence Hall of Science
(37.8785°N, 122.2415°W)
Time: 07:03:14
(UTC-07:00)

Cosmos 1461 - Visible Passes

Search period start: 25 June 2016 00:00
Search period end: 05 July 2016 00:00
Orbit: 513 x 664 km, 65.0° (Epoch: 24 June)

Date Brightness Start Highest point End Pass type
(mag) Time Alt. Az. Time Alt. Az. Time Alt. Az.
25 Jun 4.8 03:55:00 15° SSE 03:58:00 28° ESE 04:01:57 10° NE visible
26 Jun 3.9 04:02:35 22° S 04:05:20 47° ESE 04:09:49 10° NE visible
27 Jun 3.2 04:10:06 26° SSW 04:12:44 83° ESE 04:17:24 10° NNE visible
28 Jun 5.4 02:41:04 14° ESE 02:41:27 15° ESE 02:44:00 10° ENE visible
28 Jun 3.4 04:17:34 25° SW 04:20:12 58° WNW 04:24:48 10° NNE visible
29 Jun 4.7 02:48:28 25° ESE 02:48:42 25° ESE 02:52:30 10° ENE visible
29 Jun 4.1 04:24:58 19° WSW 04:27:45 35° NW 04:32:00 10° NNE visible
30 Jun 3.8 02:55:50 42° ESE 02:56:01 42° ESE 03:00:25 10° NE visible
30 Jun 4.8 04:32:19 13° W 04:35:22 23° NW 04:39:02 10° N visible
01 Jul 3.1 03:03:08 72° SSE 03:03:23 74° ESE 03:08:02 10° NE visible
01 Jul 5.3 04:40:26 10° W 04:43:05 15° NW 04:45:43 10° N visible
02 Jul 5.8 01:33:54 11° E 01:33:54 11° E 01:34:14 10° E visible
02 Jul 3.2 03:10:23 61° W 03:10:50 65° WNW 03:15:27 10° NNE visible
03 Jul 5.3 01:41:06 18° E 01:41:06 18° E 01:42:58 10° ENE visible
03 Jul 4.0 03:17:35 36° WNW 03:18:22 39° NW 03:22:42 10° NNE visible
04 Jul 4.7 01:48:15 29° ENE 01:48:15 29° ENE 01:50:57 10° NE visible
04 Jul 4.7 03:24:44 22° WNW 03:25:57 25° NW 03:29:45 10° N visible
